Location: Unspecified
(43.8044°N, 11.0278°E)
Time: 18:02:39
(UTC+01:00)

Resurs 1-4 Rocket - Visible Passes

Search period start: 23 November 2014 00:00
Search period end: 03 December 2014 00:00
Orbit: 800 x 815 km, 98.4° (Epoch: 22 November)

Date Brightness Start Highest point End Pass type
(mag) Time Alt. Az. Time Alt. Az. Time Alt. Az.
23 Nov 4.9 03:23:38 10° NE 03:23:47 11° NE 03:23:47 11° NE visible
23 Nov 3.8 05:03:13 10° N 05:04:51 19° N 05:04:51 19° N visible
24 Nov 4.0 04:38:34 10° N 04:39:57 19° N 04:39:57 19° N visible
25 Nov 4.3 04:14:05 10° NNE 04:15:03 16° NNE 04:15:03 16° NNE visible
25 Nov 4.1 05:55:36 10° NNW 05:56:07 12° NNW 05:56:07 12° NNW visible
26 Nov 4.7 03:49:47 10° NNE 03:50:08 12° NNE 03:50:08 12° NNE visible
26 Nov 4.0 05:30:19 10° NNW 05:31:13 14° NNW 05:31:13 14° NNW visible
27 Nov 4.1 05:05:25 10° N 05:06:19 15° N 05:06:19 15° N visible
28 Nov 4.3 04:40:44 10° N 04:41:26 14° N 04:41:26 14° N visible
29 Nov 4.6 04:16:13 10° NNE 04:16:33 12° NNE 04:16:33 12° NNE visible
30 Nov 4.2 05:32:32 10° NNW 05:32:45 11° NNW 05:32:45 11° NNW visible
01 Dec 4.3 05:07:35 10° N 05:07:52 11° N 05:07:52 11° N visible
02 Dec 4.5 04:42:53 10° N 04:43:00 11° N 04:43:00 11° N visible
